Terminal Aerodrome Forecast
Issued by NWS Topeka, KS

Home | Current Version | Previous Version | Text Only | Print | Product List | Glossary Off
Versions: 1 2 3 4 5 6 7 8 9 10 11 12 13 14 15 16

000
FTUS43 KTOP 260520
TAFTOP
TAF
KTOP 260520Z 2606/2706 10005KT P6SM BKN150
     FM261100 12006KT P6SM -SHRA VCTS BKN090CB
     FM261600 19008KT P6SM SCT060
     FM270300 15004KT P6SM SCT200=

USA.gov is the U.S. government's official web portal to all federal, state and local government web resources and services.